KK7MLS-13 Weather Reports


Display with metric or nautical units.
time (UTC)temp
F
wind
direction
speed
MPH
gust
MPH
rain 1hr
in
rain 24hr
in
rain mn
in
humidity
%
barometer
mb
20260507085049 54 179 0.0 0.0 0.00 0.00 0.00 79 1021.8
20260507084545 54 211 0.0 0.0 0.00 0.00 0.00 78 1021.7
20260507084043 54 210 0.0 1.0 0.00 0.00 0.00 78 1021.8
20260507083539 54 223 0.0 0.0 0.00 0.00 0.00 78 1021.8
20260507083036 54 223 0.0 0.0 0.00 0.00 0.00 78 1021.8
20260507082532 54 222 0.0 0.0 0.00 0.00 0.00 78 1021.8
20260507082028 54 217 0.0 0.0 0.00 0.00 0.00 78 1021.8
20260507081525 54 218 0.0 0.0 0.00 0.00 0.00 78 1021.9
20260507081022 54 190 0.0 0.0 0.00 0.00 0.00 78 1021.8
20260507080517 54 199 0.0 0.0 0.00 0.00 0.00 78 1021.8
20260507080014 54 199 0.0 0.0 0.00 0.00 0.00 78 1021.8
20260507075509 54 199 0.0 1.0 0.00 0.00 0.00 78 1021.9
20260507075006 54 220 0.0 0.0 0.00 0.00 0.00 77 1022.0
20260507074503 54 236 1.0 2.0 0.00 0.00 0.00 77 1021.9
20260507074001 55 197 0.0 0.0 0.00 0.00 0.00 77 1021.9
20260507073457 55 197 0.0 0.0 0.00 0.00 0.00 76 1021.8
20260507072954 55 141 0.0 0.0 0.00 0.00 0.00 76 1021.8
20260507072452 55 184 0.0 0.0 0.00 0.00 0.00 76 1021.8
20260507071949 55 183 0.0 0.0 0.00 0.00 0.00 77 1021.8
20260507071445 55 183 0.0 0.0 0.00 0.00 0.00 77 1021.6
20260507070942 55 200 0.0 1.0 0.00 0.00 0.00 77 1021.7
20260507070440 55 346 0.0 0.0 0.00 0.00 0.00 77 1021.5
20260507065936 55 308 0.0 0.0 0.00 0.00 0.00 77 1021.5
20260507065433 55 278 0.0 0.0 0.00 0.00 0.00 77 1021.7
20260507064930 55 250 0.0 0.0 0.00 0.00 0.00 77 1021.5
20260507064428 55 252 0.0 1.0 0.00 0.00 0.00 77 1021.7
20260507063926 55 237 0.0 0.0 0.00 0.00 0.00 78 1021.7
20260507063423 55 153 0.0 1.0 0.00 0.00 0.00 78 1021.7
20260507062920 55 227 0.0 0.0 0.00 0.00 0.00 78 1021.7
20260507062417 55 73 0.0 1.0 0.00 0.00 0.00 77 1021.6
20260507061914 55 260 0.0 0.0 0.00 0.00 0.00 79 1021.7
20260507061412 55 248 0.0 0.0 0.00 0.00 0.00 78 1021.8
20260507060910 55 153 0.0 0.0 0.00 0.00 0.00 79 1021.6
20260507060406 55 240 0.0 0.0 0.00 0.00 0.00 79 1021.6
20260507055903 55 264 0.0 1.0 0.00 0.00 0.00 78 1021.7
20260507055358 55 30 0.0 0.0 0.00 0.00 0.00 79 1021.8
20260507054856 55 40 0.0 0.0 0.00 0.00 0.00 79 1021.5
20260507054352 55 218 0.0 0.0 0.00 0.00 0.00 79 1021.6
20260507053849 55 218 0.0 0.0 0.00 0.00 0.00 79 1021.6
20260507053347 55 193 0.0 0.0 0.00 0.00 0.00 78 1021.7
20260507052845 56 182 0.0 0.0 0.00 0.00 0.00 78 1021.3
20260507052342 56 235 0.0 1.0 0.00 0.00 0.00 78 1021.7
20260507051839 56 221 0.0 0.0 0.00 0.00 0.00 78 1021.4
20260507051337 56 221 0.0 0.0 0.00 0.00 0.00 77 1021.6
20260507050833 56 253 0.0 1.0 0.00 0.00 0.00 77 1021.6
20260507050330 56 244 0.0 0.0 0.00 0.00 0.00 77 1021.5
20260507045827 56 251 0.0 0.0 0.00 0.00 0.00 77 1021.7
20260507045323 57 214 0.0 0.0 0.00 0.00 0.00 76 1021.8
20260507044821 57 273 0.0 0.0 0.00 0.00 0.00 76 1021.6
20260507044317 57 79 0.0 1.0 0.00 0.00 0.00 76 1021.6
20260507043813 57 297 1.0 2.0 0.00 0.00 0.00 76 1021.4
20260507043310 57 219 0.0 2.0 0.00 0.00 0.00 76 1021.3
20260507042806 57 264 0.0 1.0 0.00 0.00 0.00 76 1021.4
20260507042302 57 281 0.0 0.0 0.00 0.00 0.00 76 1021.4
20260507041759 57 287 0.0 0.0 0.00 0.00 0.00 76 1021.5
20260507041255 58 250 0.0 0.0 0.00 0.00 0.00 75 1021.4
20260507040753 58 255 0.0 2.0 0.00 0.00 0.00 75 1021.3
20260507040249 58 247 0.0 0.0 0.00 0.00 0.00 75 1021.2
20260507035745 58 261 1.0 2.0 0.00 0.00 0.00 75 1021.0
20260507035240 58 263 1.0 1.0 0.00 0.00 0.00 74 1021.0
20260507034738 58 270 0.0 0.0 0.00 0.00 0.00 75 1020.9
20260507034235 59 96 0.0 1.0 0.00 0.00 0.00 75 1020.9
20260507033733 59 228 0.0 1.0 0.00 0.00 0.00 75 1020.8
20260507033230 59 28 0.0 1.0 0.00 0.00 0.00 74 1020.9
20260507032728 59 275 0.0 2.0 0.00 0.00 0.00 74 1020.7
20260507032223 59 230 0.0 1.0 0.00 0.00 0.00 74 1020.7
20260507031720 60 251 0.0 1.0 0.00 0.00 0.00 74 1020.6
20260507031217 60 249 0.0 1.0 0.00 0.00 0.00 73 1020.5
20260507030714 60 201 0.0 0.0 0.00 0.00 0.00 73 1020.6
20260507030212 60 305 0.0 2.0 0.00 0.00 0.00 73 1020.4
20260507025708 61 231 0.0 3.0 0.00 0.00 0.00 72 1020.3
20260507025205 61 291 0.0 0.0 0.00 0.00 0.00 73 1020.5
20260507024704 61 279 0.0 0.0 0.00 0.00 0.00 72 1020.4
20260507024200 61 304 0.0 0.0 0.00 0.00 0.00 72 1020.2
20260507023656 61 260 0.0 0.0 0.00 0.00 0.00 72 1020.2
20260507023153 61 261 0.0 0.0 0.00 0.00 0.00 71 1020.1
20260507022650 62 86 0.0 1.0 0.00 0.00 0.00 71 1020.3
20260507022140 62 328 0.0 1.0 0.00 0.00 0.00 70 1020.1
20260507021637 62 358 0.0 0.0 0.00 0.00 0.00 69 1020.1
20260507021132 63 259 1.0 1.0 0.00 0.00 0.00 69 1020.0
20260507020631 64 269 0.0 2.0 0.00 0.00 0.00 67 1020.0
20260507020127 65 204 0.0 1.0 0.00 0.00 0.00 65 1020.1
20260507015626 65 89 1.0 1.0 0.00 0.00 0.00 65 1020.2
20260507015122 66 293 1.0 2.0 0.00 0.00 0.00 64 1020.2
20260507014619 66 319 0.0 1.0 0.00 0.00 0.00 64 1020.3
20260507014115 65 279 0.0 0.0 0.00 0.00 0.00 64 1020.4
20260507013612 66 285 1.0 1.0 0.00 0.00 0.00 65 1020.3
20260507013109 67 112 0.0 1.0 0.00 0.00 0.00 63 1020.2
20260507012606 69 290 0.0 3.0 0.00 0.00 0.00 60 1020.2
20260507012101 70 310 0.0 0.0 0.00 0.00 0.00 60 1020.2
20260507011600 69 265 0.0 1.0 0.00 0.00 0.00 61 1020.2
20260507011055 67 64 0.0 3.0 0.00 0.00 0.00 66 1020.0
20260507010551 66 314 0.0 2.0 0.00 0.00 0.00 66 1020.1
20260507010047 66 276 1.0 1.0 0.00 0.00 0.00 66 1020.2
20260507005545 66 284 0.0 1.0 0.00 0.00 0.00 66 1020.2
20260507005040 67 289 0.0 1.0 0.00 0.00 0.00 66 1020.2
20260507004537 67 19 0.0 0.0 0.00 0.00 0.00 66 1020.0
20260507004035 67 306 0.0 1.0 0.00 0.00 0.00 66 1020.1
20260507003530 67 313 1.0 1.0 0.00 0.00 0.00 67 1020.2
20260507003025 67 300 0.0 1.0 0.00 0.00 0.00 68 1020.0
20260507002522 68 358 0.0 0.0 0.00 0.00 0.00 65 1020.0
20260507002018 69 57 0.0 1.0 0.00 0.00 0.00 63 1020.0
20260507001515 70 265 1.0 1.0 0.00 0.00 0.00 61 1020.0
20260507001013 70 251 0.0 1.0 0.00 0.00 0.00 61 1020.1
20260507000508 70 279 0.0 1.0 0.00 0.00 0.00 61 1020.0
20260507000004 69 306 0.0 0.0 0.00 0.00 0.00 64 1020.0
20260506235502 70 249 0.0 1.0 0.00 0.00 0.00 62 1020.0
20260506234957 70 235 0.0 2.0 0.00 0.00 0.00 60 1020.0
20260506234455 71 266 0.0 0.0 0.00 0.00 0.00 61 1020.0
20260506233952 72 152 0.0 0.0 0.00 0.00 0.00 59 1020.2
20260506233449 72 301 0.0 0.0 0.00 0.00 0.00 58 1020.0
20260506232945 72 228 0.0 1.0 0.00 0.00 0.00 59 1020.1
20260506232441 72 298 0.0 0.0 0.00 0.00 0.00 58 1020.1
20260506231937 71 279 1.0 1.0 0.00 0.00 0.00 58 1020.1
20260506231435 71 273 0.0 1.0 0.00 0.00 0.00 57 1020.3
20260506230932 71 240 0.0 0.0 0.00 0.00 0.00 62 1019.9
20260506230428 70 185 0.0 0.0 0.00 0.00 0.00 61 1020.2
20260506225925 70 270 0.0 0.0 0.00 0.00 0.00 62 1020.3
20260506225422 71 279 0.0 1.0 0.00 0.00 0.00 59 1020.3
20260506224919 71 212 1.0 1.0 0.00 0.00 0.00 59 1020.5
20260506224417 71 284 0.0 0.0 0.00 0.00 0.00 61 1020.5
20260506223913 70 32 0.0 1.0 0.00 0.00 0.00 60 1020.5
20260506223408 69 282 0.0 0.0 0.00 0.00 0.00 62 1020.6
20260506222905 69 192 0.0 1.0 0.00 0.00 0.00 62 1020.7
20260506222401 69 263 3.0 3.0 0.00 0.00 0.00 60 1020.6
20260506221859 70 182 0.0 1.0 0.00 0.00 0.00 62 1020.8
20260506221356 70 223 0.0 1.0 0.00 0.00 0.00 61 1020.7
20260506220854 70 12 0.0 0.0 0.00 0.00 0.00 62 1020.8
20260506220349 70 252 0.0 1.0 0.00 0.00 0.00 60 1020.7
20260506215846 69 87 0.0 0.0 0.00 0.00 0.00 62 1020.7
20260506215342 69 242 0.0 1.0 0.00 0.00 0.00 61 1020.7
20260506214838 70 183 0.0 1.0 0.00 0.00 0.00 59 1020.5
20260506214335 70 292 1.0 1.0 0.00 0.00 0.00 59 1020.6
20260506213833 69 266 0.0 1.0 0.00 0.00 0.00 63 1020.6
20260506213330 67 267 1.0 1.0 0.00 0.00 0.00 65 1020.6
20260506212827 68 209 0.0 2.0 0.00 0.00 0.00 64 1021.0
20260506212323 69 287 1.0 3.0 0.00 0.00 0.00 62 1020.8
20260506211818 68 202 0.0 1.0 0.00 0.00 0.00 67 1021.0
20260506211314 67 154 1.0 1.0 0.00 0.00 0.00 66 1020.9
20260506210812 67 161 1.0 1.0 0.00 0.00 0.00 66 1021.2
20260506210309 67 169 0.0 1.0 0.00 0.00 0.00 66 1021.2
20260506205806 67 162 0.0 1.0 0.00 0.00 0.00 65 1020.9
20260506205305 68 275 1.0 1.0 0.00 0.00 0.00 65 1021.0
20260506204758 68 259 0.0 0.0 0.00 0.00 0.00 67 1021.1
20260506204256 68 292 0.0 1.0 0.00 0.00 0.00 65 1021.0
20260506203754 66 72 0.0 1.0 0.00 0.00 0.00 69 1020.9
20260506203251 66 91 0.0 0.0 0.00 0.00 0.00 70 1021.0
20260506202748 65 278 0.0 1.0 0.00 0.00 0.00 70 1021.0
20260506202244 64 279 0.0 0.0 0.00 0.00 0.00 72 1021.0
20260506201741 65 293 1.0 1.0 0.00 0.00 0.00 69 1021.0
20260506201238 65 207 1.0 2.0 0.00 0.00 0.00 69 1021.3
20260506200735 66 269 0.0 1.0 0.00 0.00 0.00 69 1021.2
20260506200231 66 240 0.0 2.0 0.00 0.00 0.00 68 1021.1
20260506195728 65 288 0.0 1.0 0.00 0.00 0.00 70 1021.1
20260506195224 64 67 0.0 1.0 0.00 0.00 0.00 71 1021.4
20260506194722 64 3 0.0 1.0 0.00 0.00 0.00 71 1021.4
20260506194218 64 20 0.0 0.0 0.00 0.00 0.00 73 1021.6
20260506193716 64 228 0.0 1.0 0.00 0.00 0.00 72 1021.5
20260506193212 64 354 0.0 1.0 0.00 0.00 0.00 71 1021.4
20260506192709 64 297 0.0 0.0 0.00 0.00 0.00 71 1021.4
20260506192206 64 303 0.0 1.0 0.00 0.00 0.00 71 1021.5
20260506191657 65 256 0.0 2.0 0.00 0.00 0.00 70 1021.3
20260506191153 64 174 0.0 1.0 0.00 0.00 0.00 70 1021.3
20260506190650 63 87 0.0 0.0 0.00 0.00 0.00 73 1021.2
20260506190147 63 280 1.0 2.0 0.00 0.00 0.00 72 1021.4
20260506185644 63 156 1.0 1.0 0.00 0.00 0.00 73 1021.3
20260506185140 63 267 2.0 2.0 0.00 0.00 0.00 71 1021.4
20260506184638 63 21 1.0 2.0 0.00 0.00 0.00 72 1021.3
20260506184135 63 204 0.0 1.0 0.00 0.00 0.00 73 1021.2
20260506183631 63 278 1.0 3.0 0.00 0.00 0.00 71 1021.1
20260506183127 63 12 0.0 1.0 0.00 0.00 0.00 73 1021.2
20260506182625 62 324 0.0 0.0 0.00 0.00 0.00 73 1021.3
20260506182122 62 236 0.0 2.0 0.00 0.00 0.00 74 1021.5
20260506181620 62 342 0.0 1.0 0.00 0.00 0.00 75 1021.3
20260506181117 62 221 0.0 2.0 0.00 0.00 0.00 74 1021.2
20260506180613 62 244 1.0 2.0 0.00 0.00 0.00 74 1021.3
20260506180110 60 185 0.0 0.0 0.00 0.00 0.00 78 1021.3
20260506175606 59 155 0.0 1.0 0.00 0.00 0.00 78 1021.3
20260506175102 59 274 1.0 2.0 0.00 0.00 0.00 77 1021.2
20260506174601 59 261 1.0 1.0 0.00 0.00 0.00 78 1021.4
20260506174057 60 299 0.0 1.0 0.00 0.00 0.00 78 1021.3
20260506173555 59 12 0.0 0.0 0.00 0.00 0.00 80 1021.3
20260506173052 59 67 0.0 1.0 0.00 0.00 0.00 79 1021.0
20260506172549 59 148 0.0 0.0 0.00 0.00 0.00 80 1021.1
20260506172045 59 131 0.0 0.0 0.00 0.00 0.00 81 1020.8
20260506171543 59 7 0.0 1.0 0.00 0.00 0.00 81 1021.1
20260506171040 58 243 0.0 1.0 0.00 0.00 0.00 83 1021.1
20260506170538 58 258 0.0 0.0 0.00 0.00 0.00 82 1021.1
20260506170035 58 259 0.0 0.0 0.00 0.00 0.00 82 1021.0
20260506165533 58 233 1.0 1.0 0.00 0.00 0.00 82 1021.2
20260506165029 58 273 0.0 1.0 0.00 0.00 0.00 82 1021.1
20260506164526 58 79 0.0 0.0 0.00 0.00 0.00 82 1021.0
20260506164018 58 151 1.0 2.0 0.00 0.00 0.00 83 1021.0
20260506163514 57 325 0.0 0.0 0.00 0.00 0.00 83 1021.0
20260506163009 57 280 0.0 0.0 0.00 0.00 0.00 83 1021.2
20260506162506 57 269 1.0 1.0 0.00 0.00 0.00 83 1020.9
20260506162003 57 276 0.0 0.0 0.00 0.00 0.00 83 1021.0
20260506161500 57 331 0.0 0.0 0.00 0.00 0.00 83 1020.8
20260506160958 57 5 0.0 0.0 0.00 0.00 0.00 83 1020.9
20260506160455 57 119 0.0 1.0 0.00 0.00 0.00 83 1021.0
20260506155952 57 190 0.0 1.0 0.00 0.00 0.00 83 1020.6
20260506155450 57 9 0.0 0.0 0.00 0.00 0.00 83 1020.6
20260506153617 57 90 0.0 0.0 0.00 0.00 0.00 85 1020.2
20260506153114 57 264 1.0 1.0 0.00 0.00 0.00 84 1020.6
20260506152611 57 280 0.0 0.0 0.00 0.00 0.00 85 1020.8
20260506152109 57 15 0.0 0.0 0.00 0.00 0.00 84 1020.8
20260506151607 57 326 0.0 0.0 0.00 0.00 0.00 85 1021.0
20260506151104 57 326 0.0 0.0 0.00 0.00 0.00 84 1021.1
20260506150600 57 241 0.0 0.0 0.00 0.00 0.00 84 1021.0
20260506150057 57 295 0.0 0.0 0.00 0.00 0.00 84 1021.0
20260506145554 57 293 0.0 0.0 0.00 0.00 0.00 85 1021.1
20260506145051 57 253 0.0 0.0 0.00 0.00 0.00 84 1021.1
20260506144548 57 227 0.0 0.0 0.00 0.00 0.00 84 1020.6
20260506144045 57 235 0.0 0.0 0.00 0.00 0.00 84 1020.8
20260506143543 57 235 0.0 0.0 0.00 0.00 0.00 83 1020.8
20260506143041 57 62 0.0 1.0 0.00 0.00 0.00 83 1020.6
20260506142538 57 224 0.0 0.0 0.00 0.00 0.00 84 1020.5
20260506142037 57 16 0.0 0.0 0.00 0.00 0.00 84 1020.4
20260506141534 57 58 0.0 0.0 0.00 0.00 0.00 84 1020.1
20260506141032 56 31 0.0 1.0 0.00 0.00 0.00 84 1020.2
20260506140529 56 266 0.0 0.0 0.00 0.00 0.00 85 1020.2
20260506140027 56 118 0.0 1.0 0.00 0.00 0.00 85 1020.0
20260506135523 56 250 0.0 0.0 0.00 0.00 0.00 85 1020.2
20260506135019 56 295 0.0 0.0 0.00 0.00 0.00 86 1020.2
20260506134516 56 330 0.0 0.0 0.00 0.00 0.00 86 1020.1
20260506134012 56 252 0.0 0.0 0.00 0.00 0.00 86 1020.0
20260506133510 56 254 0.0 0.0 0.00 0.00 0.00 85 1019.9
20260506133006 56 282 0.0 0.0 0.00 0.00 0.00 86 1019.9
20260506132503 56 291 0.0 0.0 0.00 0.00 0.00 85 1019.9
20260506132001 56 202 0.0 0.0 0.00 0.00 0.00 85 1019.8
20260506131457 56 221 0.0 1.0 0.00 0.00 0.00 85 1019.7
20260506130953 56 268 0.0 0.0 0.00 0.00 0.00 85 1019.7
20260506130450 56 267 0.0 0.0 0.00 0.00 0.00 85 1019.7
20260506125948 56 188 0.0 0.0 0.00 0.00 0.00 85 1019.7
20260506125446 56 119 0.0 0.0 0.00 0.00 0.00 85 1019.9
20260506124944 56 119 0.0 0.0 0.00 0.00 0.00 84 1019.6
20260506124441 56 84 0.0 0.0 0.00 0.00 0.00 84 1019.5
20260506123939 56 205 0.0 0.0 0.00 0.00 0.00 84 1019.5
20260506123437 56 109 0.0 0.0 0.00 0.00 0.00 84 1019.5
20260506122934 57 60 0.0 0.0 0.00 0.00 0.00 84 1019.6
20260506122431 57 60 0.0 0.0 0.00 0.00 0.00 85 1019.6
20260506121929 57 60 0.0 0.0 0.00 0.00 0.00 84 1019.6
20260506121426 57 60 0.0 0.0 0.00 0.00 0.00 84 1019.5
20260506120923 57 60 0.0 0.0 0.00 0.00 0.00 85 1019.6
20260506120420 57 60 0.0 0.0 0.00 0.00 0.00 84 1019.5
20260506115917 57 60 0.0 0.0 0.00 0.00 0.00 84 1019.6
20260506115415 57 60 0.0 0.0 0.00 0.00 0.00 84 1019.5
20260506114913 57 60 0.0 0.0 0.00 0.00 0.00 84 1019.4
20260506114410 57 60 0.0 0.0 0.00 0.00 0.00 84 1019.2
20260506113909 57 60 0.0 0.0 0.00 0.00 0.00 84 1019.2
20260506113406 57 60 0.0 0.0 0.00 0.00 0.00 84 1019.1
20260506112903 57 60 0.0 0.0 0.00 0.00 0.00 84 1019.1
20260506112400 57 60 0.0 0.0 0.00 0.00 0.00 84 1019.1
20260506111857 57 60 0.0 0.0 0.00 0.00 0.00 84 1019.1
20260506111356 57 60 0.0 0.0 0.00 0.00 0.00 84 1018.9
20260506110853 57 60 0.0 0.0 0.00 0.00 0.00 84 1018.9
20260506110350 57 60 0.0 0.0 0.00 0.00 0.00 84 1019.1
20260506105847 57 49 0.0 1.0 0.00 0.00 0.00 84 1018.9
20260506105343 57 198 0.0 1.0 0.00 0.00 0.00 83 1018.6
20260506104841 57 77 0.0 0.0 0.00 0.00 0.00 83 1018.8
20260506104338 57 76 0.0 0.0 0.00 0.00 0.00 83 1018.5
20260506103836 57 77 0.0 0.0 0.00 0.00 0.00 83 1018.5
20260506103333 57 279 0.0 0.0 0.00 0.00 0.00 83 1018.5
20260506102830 57 279 0.0 0.0 0.00 0.00 0.00 83 1018.4
20260506102328 57 280 0.0 1.0 0.00 0.00 0.00 83 1018.4
20260506101825 57 285 0.0 0.0 0.00 0.00 0.00 83 1018.3
20260506101321 57 289 0.0 0.0 0.00 0.00 0.00 83 1018.1
20260506100819 57 290 0.0 0.0 0.00 0.00 0.00 83 1018.2
20260506100317 57 296 0.0 1.0 0.00 0.00 0.00 83 1018.1
20260506095815 57 210 0.0 0.0 0.00 0.00 0.00 83 1018.2
20260506095312 57 303 0.0 0.0 0.00 0.00 0.00 83 1018.5
20260506094809 57 227 0.0 1.0 0.00 0.00 0.00 82 1018.0
20260506094307 57 173 0.0 0.0 0.00 0.00 0.00 82 1017.9
20260506093805 57 277 0.0 1.0 0.00 0.00 0.00 82 1018.1
20260506093302 58 274 0.0 0.0 0.00 0.00 0.00 82 1017.9
20260506092800 58 51 0.0 1.0 0.00 0.00 0.00 82 1017.9
20260506092257 58 299 1.0 1.0 0.00 0.00 0.00 82 1018.0
20260506091755 58 260 0.0 0.0 0.00 0.00 0.00 82 1018.1
20260506091252 58 292 0.0 1.0 0.00 0.00 0.00 82 1017.8
20260506090750 58 279 0.0 0.0 0.00 0.00 0.00 82 1017.9
20260506090247 58 293 0.0 0.0 0.00 0.00 0.00 82 1017.8
20260506085743 58 320 0.0 0.0 0.00 0.00 0.00 82 1017.8